Location: St. Louis
(38.6270°N, 90.1994°W)
Time: 09:00:03
(UTC-06:00)

deb Explorer IX - Pass Details

Date: 04 December 2021
Orbit: 544 x 1082 km, 38.8° (Epoch: 19 January)

Event Time Altitude Azimuth Distance (km) Brightness Sun altitude
Rises 12:35:51 0° 274° (W) 2,857 ? 28.1°
Reaches altitude 10° 12:38:14 10° 275° (W) 1,897 ? 28.0°
Maximum altitude 12:42:32 90° 26° (NNE) 556 ? 27.9°
Drops below altitude 10° 12:46:37 10° 96° (E) 1,801 ? 27.7°
Sets 12:48:50 0° 96° (E) 2,699 ? 27.6°
